Track YAOGAN-30 C now! 10-day predictions YAOGAN-30 C is classified as:
1 42947U 17058C 26104.55526771 .00001943 00000-0 13934-3 0 9998 2 42947 34.9975 49.5024 0004777 356.3481 3.7193 15.04142384466230